South Beach, OR

8:52 PM PDT on September 24, 2016 (GMT -0700)
Newport Municipal

Weather History for KONP - April, 2014

Change the Weather History Date:

Saturday, April 5, 2014

  Actual Average Record
Temperature  
Mean Temperature 50 °F -  
Max Temperature 51 °F 51 °F 68 °F (2007)
Min Temperature 50 °F 40 °F 33 °F (2012)
Degree Days  
Heating Degree Days 14    
Moisture  
Dew Point 50 °F    
Average Humidity 98    
Maximum Humidity 100    
Minimum Humidity 94    
Precipitation  
Precipitation 0.16 in - - ()
Sea Level Pressure  
Sea Level Pressure 30.12 in    
Wind  
Wind Speed 13 mph (SSW)    
Max Wind Speed 25 mph    
Max Gust Speed 33 mph    
Visibility 4 miles    
Events Rain    
Averages and records for this station are not official NWS values.
T = Trace of Precipitation, MM = Missing Value Source: NWS Daily Summary

Daily Weather History Graph

Daily Weather History Graph

Search for Another Location

Airport or City:

Trip Planner

Search our weather history database for the weather conditions in past years. The results will help you decide how hot, cold, wet, or windy it might be!

Date:

Astronomy

Apr. 05, 2014 Rise Set
Actual Time 6:49 AM PDT 7:48 PM PDT
Civil Twilight 6:20 AM PDT 8:18 PM PDT
Nautical Twilight 5:44 AM PDT 8:54 PM PDT
Astronomical Twilight 5:07 AM PDT 9:31 PM PDT
Moon 10:54 AM PDT (4/5) 1:11 AM PDT (4/5)
Length of Visible Light 13h 58m
Length of Day
12h 59m
Waxing Crescent, 35% of the Moon is Illuminated
Apr 5
Waxing Crescent
Apr 7
First Quarter
Apr 15
Full
Apr 22
Last Quarter
Apr 28
New

Hourly Weather History & Observations

Time (PDT) Temp. Dew Point Humidity Pressure Visibility Wind Dir Wind Speed Gust Speed Precip Events Conditions
12:15 AM 50.0 °F 50.0 °F 100% 30.03 in 3.0 mi SSW 13.8 mph - 0.02 in Rain Light Rain
12:35 AM 50.0 °F 50.0 °F 100% 30.03 in 4.0 mi SSW 15.0 mph 20.7 mph 0.02 in   Light Drizzle
12:55 AM 50.0 °F 48.2 °F 94% 30.03 in 5.0 mi SSW 13.8 mph - 0.02 in   Drizzle
1:15 AM 50.0 °F 50.0 °F 100% - 5.0 mi SSW 12.7 mph - N/A   Light Drizzle
1:35 AM 50.0 °F 50.0 °F 100% 30.03 in 5.0 mi SW 11.5 mph - N/A   Overcast
1:55 AM 50.0 °F 50.0 °F 100% 30.03 in 5.0 mi SSW 9.2 mph - N/A   Overcast
2:15 AM 50.0 °F 50.0 °F 100% 30.04 in 5.0 mi SSW 9.2 mph - N/A Rain Rain
2:35 AM 50.0 °F 50.0 °F 100% 30.03 in 5.0 mi SSW 9.2 mph - N/A   Light Drizzle
2:55 AM 50.0 °F 50.0 °F 100% 30.03 in 2.0 mi SSW 10.4 mph - N/A Rain Rain
3:15 AM 50.0 °F 50.0 °F 100% 30.04 in 5.0 mi SSW 10.4 mph - N/A   Overcast
3:35 AM 50.0 °F 50.0 °F 100% 30.04 in 5.0 mi SSW 11.5 mph - N/A   Overcast
3:55 AM 50.0 °F 50.0 °F 100% 30.04 in 3.0 mi SSW 10.4 mph - N/A   Overcast
4:15 AM 50.0 °F 50.0 °F 100% 30.04 in 5.0 mi SSW 9.2 mph - N/A   Drizzle
4:35 AM 50.0 °F 50.0 °F 100% 30.05 in 5.0 mi SSW 9.2 mph - N/A   Light Drizzle
4:55 AM 50.0 °F 50.0 °F 100% 30.05 in 4.0 mi SSW 5.8 mph - 0.01 in Rain Rain
5:15 AM 50.0 °F 50.0 °F 100% 30.05 in 2.5 mi SSW 6.9 mph - N/A   Drizzle
5:35 AM 50.0 °F 50.0 °F 100% 30.05 in 2.0 mi SSW 8.1 mph - 0.01 in   Drizzle
5:55 AM 50.0 °F 50.0 °F 100% 30.06 in 2.0 mi SW 8.1 mph - 0.03 in   Heavy Drizzle
6:15 AM 50.0 °F 50.0 °F 100% 30.06 in 2.0 mi WSW 6.9 mph - 0.02 in Rain Rain
6:35 AM 50.0 °F 50.0 °F 100% 30.07 in 5.0 mi SW 6.9 mph - 0.02 in   Overcast
6:55 AM 50.0 °F 50.0 °F 100% 30.08 in 5.0 mi SSW 9.2 mph - 0.02 in   Overcast
7:15 AM 50.0 °F 50.0 °F 100% 30.08 in 4.0 mi SSW 8.1 mph - N/A   Overcast
7:35 AM 50.0 °F 50.0 °F 100% 30.09 in 4.0 mi SSW 9.2 mph - N/A   Overcast
7:55 AM 50.0 °F 50.0 °F 100% 30.09 in 4.0 mi SSW 11.5 mph - 0.01 in   Overcast
8:20 AM 50.0 °F 50.0 °F 100% 30.09 in 4.0 mi SSW 11.5 mph - N/A   Overcast
8:35 AM 50.0 °F 50.0 °F 100% 30.10 in 4.0 mi SSW 13.8 mph - N/A   Overcast
8:55 AM 51.8 °F 50.0 °F 94% 30.10 in 4.0 mi SSW 11.5 mph - N/A   Overcast
9:15 AM 51.8 °F 50.0 °F 94% 30.11 in 4.0 mi SSW 11.5 mph 18.4 mph N/A   Overcast
9:35 AM 51.8 °F 50.0 °F 94% 30.11 in 5.0 mi SSW 15.0 mph - N/A   Overcast
9:55 AM 51.8 °F 50.0 °F 94% 30.11 in 4.0 mi SSW 15.0 mph 20.7 mph N/A Rain Light Rain
10:15 AM 51.8 °F 50.0 °F 94% 30.12 in 5.0 mi South 15.0 mph 23.0 mph N/A   Overcast
10:35 AM 51.8 °F 50.0 °F 94% 30.12 in 5.0 mi SSW 19.6 mph 25.3 mph N/A   Overcast
10:55 AM 51.8 °F 50.0 °F 94% 30.13 in 7.0 mi SSW 20.7 mph 28.8 mph N/A   Overcast
11:15 AM 51.8 °F 50.0 °F 94% 30.13 in 2.5 mi SSW 20.7 mph 27.6 mph N/A Rain Rain
11:35 AM 50.0 °F 50.0 °F 100% 30.14 in 2.0 mi South 19.6 mph 25.3 mph N/A   Overcast
11:55 AM 50.0 °F 50.0 °F 100% 30.14 in 2.0 mi SSW 18.4 mph 26.5 mph N/A   Overcast
12:15 PM 51.8 °F 50.0 °F 94% 30.14 in 2.0 mi South 16.1 mph 26.5 mph N/A   Overcast
12:35 PM 50.0 °F 50.0 °F 100% 30.14 in 2.0 mi South 19.6 mph 33.4 mph N/A   Overcast
12:55 PM 50.0 °F 50.0 °F 100% 30.14 in 1.8 mi South 21.9 mph 31.1 mph 0.01 in Rain Light Rain
1:15 PM 50.0 °F 50.0 °F 100% 30.14 in 1.5 mi South 18.4 mph 28.8 mph 0.01 in Rain Light Rain
1:35 PM 50.0 °F 50.0 °F 100% 30.14 in 1.5 mi South 21.9 mph 32.2 mph 0.03 in Rain Light Rain
1:55 PM 50.0 °F 50.0 °F 100% 30.15 in 1.5 mi South 23.0 mph 32.2 mph 0.03 in Rain Light Rain
2:15 PM 50.0 °F 50.0 °F 100% 30.15 in 4.0 mi SSW 20.7 mph 27.6 mph N/A   Overcast
2:35 PM 50.0 °F 50.0 °F 100% 30.15 in 1.8 mi South 25.3 mph 33.4 mph N/A   Overcast
2:55 PM 50.0 °F 50.0 °F 100% 30.15 in 1.2 mi South 20.7 mph 31.1 mph N/A Rain Light Rain
3:15 PM 50.0 °F 50.0 °F 100% 30.15 in 1.2 mi South 20.7 mph 28.8 mph N/A Rain Light Rain
3:35 PM 50.0 °F 50.0 °F 100% 30.15 in 1.2 mi SSW 18.4 mph 28.8 mph N/A Rain Light Rain
3:55 PM 50.0 °F 50.0 °F 100% 30.16 in 1.2 mi SSW 21.9 mph 31.1 mph 0.01 in Rain Light Rain
4:15 PM 50.0 °F 50.0 °F 100% 30.16 in 1.5 mi SSW 19.6 mph 27.6 mph N/A Rain Light Rain
4:35 PM 50.0 °F 50.0 °F 100% 30.17 in 1.0 mi SSW 21.9 mph 28.8 mph N/A Rain Light Rain
4:55 PM 50.0 °F 50.0 °F 100% 30.17 in 1.0 mi SSW 20.7 mph 29.9 mph N/A Rain Light Rain
5:35 PM 51.8 °F 50.0 °F 94% 30.17 in 1.2 mi SSW 16.1 mph 21.9 mph 0.01 in   Light Drizzle
5:55 PM 51.8 °F 50.0 °F 94% 30.17 in 1.8 mi SSW 16.1 mph 20.7 mph 0.01 in   Overcast
6:15 PM 51.8 °F 50.0 °F 94% 30.18 in 3.0 mi SW 15.0 mph 20.7 mph N/A   Overcast
6:35 PM 50.0 °F 50.0 °F 100% 30.18 in 4.0 mi SW 12.7 mph 17.3 mph N/A   Overcast
6:55 PM 50.0 °F 50.0 °F 100% 30.18 in 5.0 mi SW 11.5 mph - N/A   Overcast
7:15 PM 50.0 °F 50.0 °F 100% 30.19 in 5.0 mi SW 9.2 mph - N/A   Light Drizzle
7:35 PM 50.0 °F 50.0 °F 100% 30.18 in 5.0 mi SSW 9.2 mph - N/A   Light Drizzle
7:55 PM 50.0 °F 50.0 °F 100% 30.19 in 5.0 mi SSW 9.2 mph - N/A   Drizzle
8:15 PM 50.0 °F 50.0 °F 100% 30.19 in 5.0 mi SSW 6.9 mph - N/A Rain Light Rain
8:35 PM 50.0 °F 50.0 °F 100% 30.20 in 4.0 mi SSW 9.2 mph - N/A   Light Drizzle
8:55 PM 50.0 °F 50.0 °F 100% 30.19 in 7.0 mi South 8.1 mph - N/A   Overcast
9:15 PM 50.0 °F 50.0 °F 100% 30.19 in 7.0 mi SSW 11.5 mph 16.1 mph N/A   Overcast
9:35 PM 50.0 °F 50.0 °F 100% 30.19 in 5.0 mi SSW 11.5 mph - N/A Rain Light Rain
9:55 PM 51.8 °F 50.0 °F 94% 30.19 in 5.0 mi SSW 15.0 mph 20.7 mph N/A   Overcast
10:15 PM 50.0 °F 50.0 °F 100% 30.19 in 5.0 mi SSW 15.0 mph - N/A   Overcast
10:35 PM 51.8 °F 50.0 °F 94% 30.19 in 5.0 mi SSW 16.1 mph 24.2 mph N/A   Overcast
10:55 PM 50.0 °F 50.0 °F 100% 30.20 in 4.0 mi SSW 19.6 mph 26.5 mph N/A   Overcast
11:15 PM 51.8 °F 50.0 °F 94% 30.20 in 2.0 mi SSW 19.6 mph 25.3 mph 0.01 in Rain Light Rain
11:35 PM 51.8 °F 50.0 °F 94% 30.21 in 2.0 mi SSW 18.4 mph 24.2 mph 0.01 in Rain Light Rain
11:55 PM 51.8 °F 50.0 °F 94% 30.21 in 2.0 mi SSW 18.4 mph 27.6 mph 0.01 in Rain Rain